Hourly Weather Dzierznica

Today, 6 May, Thursday

Time Temperature Precipitation Wind Pressure Humidity
00:00 +2°C° 0 mm 8 mps 743 mmHg 75%
01:00 +2°C° 0 mm 8 mps 744 mmHg 73%
02:00 +2°C° 0 mm 8 mps 744 mmHg 74%
03:00 +1°C° 0 mm 8 mps 744 mmHg 75%
04:00 +2°C° 0 mm 7 mps 744 mmHg 76%
05:00 +2°C° 0 mm 8 mps 745 mmHg 75%
06:00 +2°C° 0 mm 8 mps 745 mmHg 73%
07:00 +4°C° 0 mm 8 mps 745 mmHg 72%
08:00 +5°C° 0 mm 8 mps 745 mmHg 64%
09:00 +6°C° 0 mm 8 mps 746 mmHg 56%
10:00 +7°C° 0 mm 8 mps 746 mmHg 48%
11:00 +9°C° 0.1 mm 8 mps 746 mmHg 52%
12:00 +9°C° 0.1 mm 8 mps 745 mmHg 55%
13:00 +9°C° 0.1 mm 8 mps 745 mmHg 58%
14:00 +9°C° 0.2 mm 8 mps 745 mmHg 59%
15:00 +9°C° 0.2 mm 7 mps 745 mmHg 60%
16:00 +10°C° 0.2 mm 7 mps 744 mmHg 60%
17:00 +8°C° 0.1 mm 5 mps 744 mmHg 67%
18:00 +7°C° 0.1 mm 4 mps 744 mmHg 73%
19:00 +7°C° 0.1 mm 2 mps 744 mmHg 79%
20:00 +6°C° 0 mm 2 mps 745 mmHg 79%
21:00 +5°C° 0 mm 2 mps 745 mmHg 79%
22:00 +6°C° 0 mm 1 mps 745 mmHg 79%
23:00 +6°C° 0 mm 1 mps 744 mmHg 80%

Tomorrow, 7 May, Friday

Time Temperature Precipitation Wind Pressure Humidity
00:00 +5°C° 0 mm 2 mps 744 mmHg 80%
01:00 +5°C° 0 mm 2 mps 744 mmHg 80%
02:00 +5°C° 0.5 mm 2 mps 743 mmHg 85%
03:00 +6°C° 0.5 mm 1 mps 743 mmHg 89%
04:00 +6°C° 0.5 mm 1 mps 742 mmHg 94%
05:00 +6°C° 0.9 mm 2 mps 742 mmHg 92%
06:00 +6°C° 0.9 mm 2 mps 742 mmHg 91%
07:00 +5°C° 0.9 mm 3 mps 742 mmHg 89%
08:00 +5°C° 0.9 mm 3 mps 742 mmHg 91%
09:00 +4°C° 0.9 mm 3 mps 743 mmHg 92%
10:00 +4°C° 0.9 mm 3 mps 743 mmHg 93%
11:00 +4°C° 0.9 mm 3 mps 744 mmHg 93%
12:00 +4°C° 0.9 mm 3 mps 744 mmHg 94%
13:00 +4°C° 0.9 mm 3 mps 745 mmHg 94%
14:00 +4°C° 0.9 mm 4 mps 745 mmHg 92%
15:00 +4°C° 0.9 mm 4 mps 746 mmHg 90%
16:00 +3°C° 0.9 mm 5 mps 747 mmHg 89%
17:00 +3°C° 0.5 mm 5 mps 747 mmHg 91%
18:00 +2°C° 0.5 mm 6 mps 748 mmHg 94%
19:00 +2°C° 0.5 mm 6 mps 749 mmHg 96%
20:00 +2°C° 0.1 mm 6 mps 749 mmHg 95%
21:00 +2°C° 0.1 mm 6 mps 750 mmHg 94%
22:00 +2°C° 0.1 mm 5 mps 750 mmHg 93%
23:00 +1°C° 0 mm 5 mps 750 mmHg 94%

Day after tomorrow, 8 May, Saturday

Time Temperature Precipitation Wind Pressure Humidity
00:00 +1°C° 0 mm 5 mps 751 mmHg 95%
01:00 +1°C° 0 mm 5 mps 751 mmHg 96%
02:00 0°C° 0 mm 5 mps 751 mmHg 96%
03:00 0°C° 0 mm 4 mps 752 mmHg 96%
04:00 -1°C° 0 mm 4 mps 752 mmHg 96%
05:00 0°C° 0 mm 5 mps 753 mmHg 93%
06:00 +2°C° 0 mm 5 mps 753 mmHg 90%
07:00 +3°C° 0 mm 6 mps 753 mmHg 87%
08:00 +4°C° 0 mm 6 mps 753 mmHg 83%
09:00 +5°C° 0 mm 6 mps 754 mmHg 78%
10:00 +5°C° 0 mm 6 mps 754 mmHg 74%
11:00 +7°C° 0.1 mm 6 mps 754 mmHg 69%
12:00 +8°C° 0.1 mm 6 mps 754 mmHg 63%
13:00 +9°C° 0.1 mm 5 mps 754 mmHg 58%
14:00 +10°C° 0 mm 5 mps 754 mmHg 55%
15:00 +10°C° 0 mm 5 mps 754 mmHg 52%
16:00 +12°C° 0 mm 4 mps 754 mmHg 49%
17:00 +11°C° 0 mm 3 mps 754 mmHg 54%
18:00 +9°C° 0 mm 2 mps 754 mmHg 60%
19:00 +9°C° 0 mm 1 mps 754 mmHg 65%
20:00 +8°C° 0 mm 1 mps 754 mmHg 67%
21:00 +6°C° 0 mm 2 mps 754 mmHg 69%
22:00 +4°C° 0 mm 3 mps 754 mmHg 71%
23:00 +4°C° 0 mm 3 mps 754 mmHg 73%

9 May, Sunday

Time Temperature Precipitation Wind Pressure Humidity
00:00 +4°C° 0 mm 3 mps 754 mmHg 74%
01:00 +4°C° 0 mm 3 mps 754 mmHg 75%
02:00 +4°C° 0 mm 4 mps 754 mmHg 76%
03:00 +4°C° 0 mm 4 mps 753 mmHg 77%
04:00 +4°C° 0 mm 4 mps 753 mmHg 77%
05:00 +5°C° 0 mm 4 mps 753 mmHg 75%
06:00 +7°C° 0 mm 5 mps 752 mmHg 73%
07:00 +8°C° 0 mm 5 mps 752 mmHg 71%
08:00 +10°C° 0 mm 6 mps 752 mmHg 67%
09:00 +13°C° 0 mm 6 mps 752 mmHg 63%
10:00 +15°C° 0 mm 6 mps 752 mmHg 59%
11:00 +16°C° 0 mm 6 mps 752 mmHg 58%
12:00 +17°C° 0 mm 6 mps 751 mmHg 56%
13:00 +19°C° 0 mm 6 mps 751 mmHg 55%
14:00 +19°C° 0 mm 6 mps 751 mmHg 58%
15:00 +20°C° 0 mm 5 mps 751 mmHg 60%
16:00 +20°C° 0 mm 5 mps 751 mmHg 63%
17:00 +19°C° 0 mm 4 mps 751 mmHg 69%
18:00 +17°C° 0 mm 4 mps 750 mmHg 75%
19:00 +14°C° 0 mm 4 mps 750 mmHg 81%
20:00 +13°C° 0 mm 4 mps 750 mmHg 80%
21:00 +12°C° 0 mm 4 mps 750 mmHg 79%
22:00 +11°C° 0 mm 4 mps 751 mmHg 79%
23:00 +10°C° 0 mm 4 mps 751 mmHg 77%

10 May, Monday

Time Temperature Precipitation Wind Pressure Humidity
00:00 +10°C° 0 mm 4 mps 751 mmHg 76%
01:00 +8°C° 0 mm 4 mps 751 mmHg 74%
02:00 +8°C° 0 mm 4 mps 750 mmHg 73%
03:00 +8°C° 0 mm 4 mps 750 mmHg 71%
04:00 +8°C° 0 mm 5 mps 750 mmHg 70%
05:00 +10°C° 0 mm 5 mps 750 mmHg 70%
06:00 +12°C° 0 mm 5 mps 750 mmHg 70%
07:00 +13°C° 0 mm 6 mps 750 mmHg 69%
08:00 +15°C° 0 mm 6 mps 750 mmHg 66%
09:00 +17°C° 0 mm 7 mps 750 mmHg 62%
10:00 +20°C° 0 mm 8 mps 750 mmHg 58%
11:00 +20°C° 0 mm 8 mps 750 mmHg 58%
12:00 +21°C° 0 mm 7 mps 749 mmHg 58%
13:00 +22°C° 0 mm 7 mps 749 mmHg 58%
14:00 +22°C° 0 mm 6 mps 749 mmHg 60%
15:00 +22°C° 0 mm 5 mps 749 mmHg 61%
16:00 +22°C° 0 mm 5 mps 749 mmHg 63%
17:00 +21°C° 0 mm 4 mps 749 mmHg 69%
18:00 +20°C° 0 mm 4 mps 749 mmHg 75%
19:00 +18°C° 0 mm 3 mps 749 mmHg 81%
20:00 +17°C° 0 mm 3 mps 749 mmHg 84%
21:00 +16°C° 0 mm 3 mps 749 mmHg 86%
22:00 +14°C° 0 mm 3 mps 749 mmHg 89%
23:00 +14°C° 0 mm 3 mps 749 mmHg 90%

11 May, Tuesday

Time Temperature Precipitation Wind Pressure Humidity
00:00 +13°C° 0 mm 4 mps 749 mmHg 90%
01:00 +13°C° 0 mm 4 mps 748 mmHg 90%
02:00 +13°C° 0 mm 4 mps 748 mmHg 90%
03:00 +13°C° 0 mm 4 mps 748 mmHg 89%
04:00 +13°C° 0 mm 5 mps 747 mmHg 88%
05:00 +14°C° 0 mm 5 mps 747 mmHg 84%
06:00 +15°C° 0 mm 5 mps 747 mmHg 80%
07:00 +17°C° 0 mm 5 mps 748 mmHg 76%
08:00 +19°C° 0 mm 6 mps 747 mmHg 72%
09:00 +20°C° 0 mm 6 mps 747 mmHg 67%
10:00 +22°C° 0 mm 6 mps 747 mmHg 63%
11:00 +23°C° 0 mm 6 mps 747 mmHg 62%
12:00 +23°C° 0 mm 6 mps 747 mmHg 61%
13:00 +25°C° 0 mm 5 mps 747 mmHg 59%
14:00 +25°C° 0 mm 5 mps 747 mmHg 61%
15:00 +25°C° 0 mm 5 mps 747 mmHg 62%
16:00 +25°C° 0 mm 4 mps 747 mmHg 64%
17:00 +23°C° 0 mm 4 mps 747 mmHg 69%
18:00 +21°C° 0 mm 3 mps 747 mmHg 75%
19:00 +20°C° 0 mm 2 mps 747 mmHg 81%
20:00 +19°C° 0 mm 2 mps 747 mmHg 83%
21:00 +18°C° 0 mm 3 mps 747 mmHg 85%
22:00 +17°C° 0 mm 3 mps 747 mmHg 87%
23:00 +17°C° 0 mm 3 mps 747 mmHg 89%
Show more

We Need Your Consent

Meteoprog and our Service Providers may store and access personal data such as cookies, device identifiers or other similar technologies on your device and process such data to personalise content and ads, as well as provide social media features and to analyse the traffic.

  • Store and/or access information on your device

    Cookies, device identifiers or other information can be stored or accessed on your device for the purposes indicated above.

  • Personalised ads and content, ad and content measurement, audience insights, and products development

    Ads and content can be personalised based on a profile. More data can be added to better personalise ads and content. Ad and content performance can be measured. Insights about the audience who saw the ads and content can be derived. Such data can be used to develop or improve user’s experience, systems and software.

By clicking ‘I Agree’ you will allow the use of indicated cookies, device identifiers, web beacons or other similar technologies. Your settings can be changed in the browser on your device.

For certain purposes, legitimate interests may be relied on, rather than consent. You can read more about this in our Privacy and Cookie Policy.